This demonstration page uses our WeatherBlox Daily Observations layout. Learn more.

Hourly Observations for November 10, 2019

Temp ( °F °C ) Dew Point ( °F °C ) Humidity (%) Winds ( mph kmh ) Pressure ( in mb ) Visibility ( mi km ) Precip ( " mm )
12:15 am 00:15 Clear 42 5.7 28 -2.1 58 58 NW 7 11 30.01 1016 10 16.0934 0 0
12:35 am 00:35 Clear 43 6.2 28 -2.1 56 56 NNW 8 13 30.01 1016 10 16.0934 0 0
12:55 am 00:55 Clear 42 5.5 28 -2.4 57 57 NW 6 9 30.01 1016 10 16.0934 0 0
1:15 am 01:15 Clear 41 4.8 28 -2.5 60 60 NNW 9 15 30.02 1017 10 16.0934 0 0
1:35 am 01:35 Clear 43 6.2 28 -2.2 55 55 NNW 7 11 30.01 1016 10 16.0934 0 0
1:55 am 01:55 Clear 40 4.7 27 -2.6 60 60 NNW 8 13 30.02 1017 10 16.0934 0 0
2:15 am 02:15 Clear 42 5.5 28 -2.5 57 57 NNW 8 13 30.01 1016 10 16.0934 0 0
2:35 am 02:35 Clear 43 6 28 -2.2 56 56 NNW 12 19 30.01 1016 10 16.0934 0 0
2:55 am 02:55 Clear 44 6.6 28 -2.1 54 54 N 10 17 30 1016 10 16.0934 0 0
3:15 am 03:15 Clear 42 5.7 28 -2.2 57 57 NNW 10 17 30.02 1017 10 16.0934 0 0
3:35 am 03:35 Clear 41 4.9 28 -2.1 61 61 NNW 7 11 30.03 1017 10 16.0934 0 0
3:55 am 03:55 Clear 40 4.2 28 -2.2 63 63 NNW 7 11 30.05 1017 10 16.0934 0 0
4:15 am 04:15 Clear 37 2.8 27 -2.6 68 68 NNW 7 11 30.06 1018 10 16.0934 0 0
4:35 am 04:35 Clear 36 2.4 27 -2.7 69 69 NNW 7 11 30.06 1018 10 16.0934 0 0
4:55 am 04:55 Clear 37 2.5 28 -2.3 71 71 NNW 5 7 30.07 1018 10 16.0934 0 0
5:15 am 05:15 Clear 38 3.2 28 -2 69 69 N 6 9 30.06 1018 10 16.0934 0 0
5:35 am 05:35 Clear 38 3.5 29 -1.5 70 70 N 8 13 30.06 1018 10 16.0934 0 0
5:55 am 05:55 Clear 37 2.8 29 -1.7 73 73 N 6 9 30.07 1018 10 16.0934 0 0
6:15 am 06:15 Clear 36 2.3 29 -1.8 75 75 N 6 9 30.08 1019 10 16.0934 0 0
6:35 am 06:35 Clear 35 1.5 28 -2.4 76 76 N 8 13 30.1 1019 10 16.0934 0 0
6:55 am 06:55 Clear 31 -0.6 27 -3 84 84 NNE 9 15 30.12 1020 10 16.0934 0 0
7:15 am 07:15 Clear 32 -0.1 28 -2.1 87 87 NNE 12 19 30.13 1020 10 16.0934 0 0
7:35 am 07:35 Sunny 34 1 30 -0.9 87 87 NNE 10 17 30.13 1020 10 16.0934 0 0
7:55 am 07:55 Sunny 35 1.5 32 -0.1 89 89 NNE 13 20 30.13 1020 10 16.0934 0 0
8:15 am 08:15 Sunny 36 2.4 33 0.5 87 87 NE 15 24 30.12 1020 10 16.0934 0 0
8:35 am 08:35 Sunny 37 3 33 0.8 86 86 NE 18 30 30.13 1020 10 16.0934 0 0
8:55 am 08:55 Sunny 38 3.3 34 0.9 84 84 NE 15 24 30.12 1020 10 16.0934 0 0
9:15 am 09:15 Sunny 39 3.7 33 0.8 82 82 NE 15 24 30.13 1020 10 16.0934 0 0
9:35 am 09:35 Sunny 40 4.2 34 1 80 80 NE 13 20 30.13 1020 10 16.0934 0 0
9:55 am 09:55 Sunny 41 5 34 1.2 77 77 NE 15 24 30.11 1020 10 16.0934 0 0
10:15 am 10:15 Sunny 42 5.4 34 1.3 75 75 ENE 15 24 30.1 1019 10 16.0934 0 0
10:35 am 10:35 Sunny 43 6 35 1.5 73 73 NE 14 22 30.1 1019 10 16.0934 0 0
10:55 am 10:55 Sunny 44 6.5 35 1.5 71 71 NE 14 22 30.09 1019 10 16.0934 0 0
11:15 am 11:15 Sunny 44 6.8 35 1.5 69 69 ENE 14 22 30.09 1019 10 16.0934 0 0
11:35 am 11:35 Sunny 46 7.6 35 1.8 67 67 ENE 12 19 30.07 1018 10 16.0934 0 0
11:55 am 11:55 Sunny 46 7.8 35 1.7 66 66 ENE 14 22 30.07 1018 10 16.0934 0 0
12:15 pm 12:15 Sunny 47 8.5 35 1.9 64 64 ENE 14 22 30.06 1018 10 16.0934 0 0
12:35 pm 12:35 Sunny 47 8.5 35 1.8 63 63 NE 10 17 30.06 1018 10 16.0934 0 0
12:55 pm 12:55 Sunny 47 8.6 35 1.7 62 62 ENE 12 19 30.05 1017 10 16.0934 0 0
1:15 pm 13:15 Sunny 48 8.7 35 1.8 62 62 ENE 9 15 30.03 1017 10 16.0934 0 0
1:35 pm 13:35 Sunny 48 9.1 35 1.9 61 61 NE 12 19 30.03 1017 10 16.0934 0 0
1:55 pm 13:55 Sunny 49 9.3 35 1.9 60 60 NE 14 22 30.03 1017 10 16.0934 0 0
2:15 pm 14:15 Sunny 48 8.8 35 1.9 62 62 NNE 15 24 30.03 1017 10 16.0934 0 0
2:35 pm 14:35 Sunny 48 8.8 35 1.8 62 62 NE 16 26 30.02 1017 10 16.0934 0 0
2:55 pm 14:55 Sunny 47 8.3 35 1.6 63 63 NE 18 30 30.03 1017 10 16.0934 0 0
3:15 pm 15:15 Sunny 47 8.1 35 1.4 63 63 ENE 16 26 30.03 1017 10 16.0934 0 0
3:35 pm 15:35 Sunny 46 7.5 34 1.1 64 64 NE 18 30 30.04 1017 10 16.0934 0 0
3:55 pm 15:55 Sunny 45 7 34 0.9 65 65 NE 16 26 30.04 1017 10 16.0934 0 0
4:15 pm 16:15 Sunny 45 7 34 0.9 65 65 ENE 21 33 30.04 1017 10 16.0934 0 0
4:35 pm 16:35 Sunny 44 6.5 33 0.5 66 66 NE 18 30 30.05 1018 10 16.0934 0 0
4:55 pm 16:55 Sunny 42 5.7 33 0.3 69 69 NE 17 28 30.07 1018 10 16.0934 0 0
5:15 pm 17:15 Sunny 40 4.7 32 0 72 72 NE 18 30 30.09 1019 10 16.0934 0 0
5:35 pm 17:35 Clear 39 3.8 32 0 77 77 NE 20 31 30.11 1020 10 16.0934 0 0
5:55 pm 17:55 Clear 38 3.3 32 0 79 79 NE 18 30 30.13 1020 10 16.0934 0 0
6:15 pm 18:15 Mostly Cloudy 38 3.5 32 0 78 78 NE 26 43 30.14 1021 10 16.0934 0 0
6:35 pm 18:35 Cloudy 36 2.1 30 -1 80 80 NE 25 41 30.18 1022 10 16.0934 0 0
6:55 pm 18:55 Cloudy 34 1.2 30 -1.1 85 85 NE 22 35 30.2 1023 10 16.0934 0 0
7:15 pm 19:15 Cloudy 32 0.1 28 -2.5 83 83 NE 29 46 30.23 1024 10 16.0934 0 0
7:35 pm 19:35 Cloudy 32 0 27 -2.7 82 82 NNE 24 39 30.26 1025 10 16.0934 0 0
7:55 pm 19:55 Cloudy 30 -0.9 28 -2.4 90 90 NE 26 43 30.27 1025 10 16.0934 0 0
8:15 pm 20:15 Cloudy 29 -1.5 27 -2.6 92 92 NNE 20 31 30.3 1026 10 16.0934 0 0
8:35 pm 20:35 Cloudy 28 -2.1 26 -3.5 90 90 NNE 24 39 30.33 1027 10 16.0934 0 0
8:55 pm 20:55 Cloudy 28 -2.5 24 -4.5 86 86 NNE 21 33 30.35 1028 10 16.0934 0 0
9:15 pm 21:15 Cloudy 27 -2.7 23 -4.8 86 86 NNE 21 33 30.35 1028 10 16.0934 0 0
9:35 pm 21:35 Cloudy 27 -3 23 -5.2 85 85 NNE 22 35 30.36 1028 10 16.0934 0 0
9:55 pm 21:55 Cloudy 27 -3 22 -5.3 84 84 NNE 25 41 30.36 1028 10 16.0934 0 0
10:15 pm 22:15 Cloudy 26 -3.5 20 -6.4 81 81 NNE 24 39 30.41 1030 10 16.0934 0 0
10:35 pm 22:35 Cloudy 26 -3.5 21 -6 83 83 N 22 35 30.42 1030 10 16.0934 0 0
10:55 pm 22:55 Cloudy 25 -4 20 -6.6 82 82 N 22 35 30.44 1031 10 16.0934 0 0
11:15 pm 23:15 Cloudy 25 -4.1 20 -6.5 84 84 N 24 39 30.46 1031 10 16.0934 0 0
11:35 pm 23:35 Cloudy 24 -4.5 19 -7 83 83 N 22 35 30.46 1031 10 16.0934 0 0
11:55 pm 23:55 Cloudy 23 -5 18 -7.6 82 82 N 21 33 30.49 1032 10 16.0934 0 0

Powered by AerisWeather